Location: Ansan
(43.6898°N, 0.7731°E)
Time: 20:47:36
(UTC+00:00)

Delta 2 Rocket - Pass Details

Date: 15 May 2026
Orbit: 321 x 413 km, 35.6° (Epoch: 6 June)

Event Time Altitude Azimuth Distance (km) Brightness Sun altitude
Rises 19:35:19 0° 237° (WSW) 2,280 6.9 -4.0°
Reaches altitude 10° 19:37:55 10° 217° (SW) 1,398 5.5 -4.4°
Maximum altitude 19:40:04 17° 174° (S) 1,038 4.4 -4.7°
Drops below altitude 10° 19:42:10 10° 130° (SE) 1,354 4.7 -5.0°
Enters shadow 19:42:57 - 121° (ESE) 1,589 5.0 -5.1°
